Weather History for KVOK - September, 2013

Change the Weather History Date:

Tuesday, September 17, 2013

  Actual Average Record
Temperature  
Mean Temperature 49 °F -  
Max Temperature 66 °F 68 °F 78 °F (1998)
Min Temperature 32 °F 50 °F 31 °F (2011)
Degree Days  
Heating Degree Days 16    
Moisture  
Dew Point 41 °F    
Average Humidity 94    
Maximum Humidity 100    
Minimum Humidity 59    
Precipitation  
Precipitation 0.00 in - - ()
Sea Level Pressure  
Sea Level Pressure 30.28 in    
Wind  
Wind Speed 4 mph (ESE)    
Max Wind Speed 8 mph    
Max Gust Speed -    
Visibility 5 miles    
Events Fog , Rain    
Averages and records for this station are not official NWS values.
T = Trace of Precipitation, MM = Missing Value Source: NWS Daily Summary

Daily Weather History Graph

Daily Weather History Graph

Search for Another Location

Airport or City:

Trip Planner

Search our weather history database for the weather conditions in past years. The results will help you decide how hot, cold, wet, or windy it might be!

Date:

Astronomy

Sep. 17, 2013 Rise Set
Actual Time 6:42 AM CDT 7:07 PM CDT
Civil Twilight 6:13 AM CDT 7:36 PM CDT
Nautical Twilight 5:39 AM CDT 8:10 PM CDT
Astronomical Twilight 5:04 AM CDT 8:44 PM CDT
Moon 5:55 PM CDT (9/17) 4:34 AM CDT (9/17)
Length of Visible Light 13h 22m
Length of Day
12h 24m
Waxing Gibbous, 96% of the Moon is Illuminated
Sep 17
Waxing Gibbous
Sep 19
Full
Sep 26
Last Quarter
Oct 4
New
Oct 11
First Quarter

Hourly Weather History & Observations

Time (CDT) Temp. Windchill Dew Point Humidity Pressure Visibility Wind Dir Wind Speed Gust Speed Precip Events Conditions
12:58 AM 43.5 °F 40.9 °F 41.9 °F 94% 30.36 in 10.0 mi ESE 4.6 mph - N/A   Clear
1:28 AM 39.2 °F 37.0 °F 39.2 °F 100% 30.34 in 6.0 mi East 3.5 mph - N/A   Clear
1:33 AM 37.4 °F 34.9 °F 37.4 °F 100% 30.34 in 2.0 mi East 3.5 mph - N/A   Clear
1:38 AM 37.4 °F 34.9 °F 37.4 °F 100% 30.34 in 1.5 mi ESE 3.5 mph - N/A   Clear
1:43 AM 39.2 °F - 37.4 °F 93% 30.34 in 3.0 mi ESE 2.3 mph - N/A   Clear
1:48 AM 39.2 °F - 39.2 °F 100% 30.34 in 7.0 mi East 2.3 mph - N/A   Clear
1:53 AM 39.2 °F - 39.2 °F 100% 30.34 in 10.0 mi ESE 2.3 mph - N/A   Clear
1:58 AM 38.5 °F - 38.5 °F 100% 30.36 in 10.0 mi ESE 1.2 mph - N/A   Clear
2:18 AM 37.4 °F - 37.4 °F 100% 30.35 in 9.0 mi Calm Calm - N/A   Clear
2:28 AM 37.4 °F - 37.4 °F 100% 30.35 in 2.0 mi East 2.3 mph - N/A   Clear
2:33 AM 35.6 °F - 35.6 °F 100% 30.35 in 0.5 mi East 2.3 mph - N/A Fog Fog
2:38 AM 35.6 °F 32.8 °F 35.6 °F 100% 30.34 in 0.2 mi East 3.5 mph - N/A Fog Fog
2:43 AM 35.6 °F - 35.6 °F 100% 30.34 in 0.5 mi East 2.3 mph - N/A Fog Fog
2:58 AM 35.6 °F - 35.4 °F 99% 30.36 in 0.8 mi East 2.3 mph - N/A   Clear
3:03 AM 35.6 °F 32.8 °F 35.6 °F 100% 30.34 in 0.5 mi East 3.5 mph - N/A Fog Fog
3:08 AM 35.6 °F 32.8 °F 35.6 °F 100% 30.34 in 0.2 mi East 3.5 mph - N/A Fog Fog
3:38 AM 35.6 °F - 33.8 °F 93% 30.33 in 1.2 mi ESE 2.3 mph - N/A   Clear
3:43 AM 35.6 °F - 33.8 °F 93% 30.33 in 9.0 mi ESE 1.2 mph - N/A   Clear
3:58 AM 33.8 °F - 33.8 °F 100% 30.35 in 2.0 mi East 2.3 mph - N/A   Clear
4:03 AM 33.8 °F - 33.8 °F 100% 30.33 in 0.5 mi ESE 2.3 mph - N/A Fog Fog
4:08 AM 33.8 °F 30.8 °F 33.8 °F 100% 30.33 in 0.8 mi ESE 3.5 mph - N/A   Clear
4:13 AM 33.8 °F - 32.0 °F 93% 30.33 in 6.0 mi ESE 2.3 mph - N/A   Clear
4:18 AM 33.8 °F - 33.8 °F 100% 30.33 in 10.0 mi ESE 2.3 mph - N/A   Clear
4:53 AM 32.0 °F 28.7 °F 32.0 °F 100% 30.32 in 1.2 mi ESE 3.5 mph - N/A   Clear
4:58 AM 32.0 °F 28.7 °F 32.0 °F 100% 30.35 in 0.8 mi ESE 3.5 mph - N/A   Clear
5:08 AM 32.0 °F 27.5 °F 32.0 °F 100% 30.32 in 0.5 mi East 4.6 mph - N/A Fog Fog
5:23 AM 33.8 °F - 33.8 °F 100% 30.32 in 0.8 mi ESE 2.3 mph - N/A   Clear
5:28 AM 33.8 °F 29.6 °F 33.8 °F 100% 30.32 in 4.0 mi SSE 4.6 mph - N/A   Clear
5:33 AM 33.8 °F 29.6 °F 33.8 °F 100% 30.32 in 10.0 mi SSE 4.6 mph - N/A   Clear
5:43 AM 32.0 °F 28.7 °F 32.0 °F 100% 30.32 in 5.0 mi SE 3.5 mph - N/A   Clear
5:53 AM 32.0 °F 28.7 °F 32.0 °F 100% 30.32 in 2.0 mi SE 3.5 mph - N/A   Clear
5:58 AM 32.0 °F 28.7 °F 32.0 °F 100% 30.35 in 1.0 mi SE 3.5 mph - N/A   Clear
6:03 AM 32.0 °F 28.7 °F 32.0 °F 100% 30.32 in 0.8 mi ESE 3.5 mph - N/A   Clear
6:08 AM 32.0 °F 28.7 °F 32.0 °F 100% 30.31 in 0.5 mi ESE 3.5 mph - N/A Fog Fog
6:13 AM 32.0 °F 28.7 °F 32.0 °F 100% 30.32 in 0.2 mi ESE 3.5 mph - N/A Fog Fog
6:18 AM 32.0 °F 28.7 °F 32.0 °F 100% 30.31 in 0.5 mi ESE 3.5 mph - N/A Fog Fog
6:28 AM 32.0 °F 28.7 °F 32.0 °F 100% 30.31 in 1.5 mi ESE 3.5 mph - N/A   Clear
6:33 AM 32.0 °F 28.7 °F 32.0 °F 100% 30.31 in 3.0 mi SE 3.5 mph - N/A   Clear
6:38 AM 32.0 °F 27.5 °F 32.0 °F 100% 30.31 in 2.0 mi SE 4.6 mph - N/A   Clear
6:43 AM 32.0 °F 28.7 °F 32.0 °F 100% 30.32 in 1.5 mi SSE 3.5 mph - N/A   Clear
6:58 AM 32.0 °F 28.7 °F 32.0 °F 100% 30.34 in 2.0 mi SE 3.5 mph - N/A   Scattered Clouds
7:58 AM 39.2 °F - 39.2 °F 100% 30.34 in 4.0 mi East 1.2 mph - N/A   Mostly Cloudy
8:58 AM 46.4 °F - 46.4 °F 100% 30.33 in 10.0 mi SSE 2.3 mph - N/A   Mostly Cloudy
9:58 AM 51.8 °F - 48.2 °F 88% 30.32 in 10.0 mi SE 5.8 mph - N/A   Mostly Cloudy
10:58 AM 55.4 °F - 50.0 °F 82% 30.32 in 10.0 mi SE 5.8 mph - N/A   Mostly Cloudy
11:58 AM 59.0 °F - 51.8 °F 77% 30.27 in 10.0 mi ESE 6.9 mph - N/A   Mostly Cloudy
12:58 PM 62.6 °F - 50.0 °F 63% 30.24 in 10.0 mi SE 8.1 mph - N/A   Mostly Cloudy
1:58 PM 64.4 °F - 50.0 °F 59% 30.22 in 10.0 mi SSE 4.6 mph - N/A   Mostly Cloudy
2:58 PM 64.4 °F - 51.8 °F 64% 30.21 in 10.0 mi South 6.9 mph - N/A   Mostly Cloudy
3:58 PM 66.2 °F - 51.8 °F 60% 30.17 in 7.0 mi SSE 8.1 mph - N/A   Mostly Cloudy
4:58 PM 64.4 °F - 51.8 °F 64% 30.15 in 10.0 mi SE 8.1 mph - N/A   Overcast
5:58 PM 64.4 °F - 51.8 °F 64% 30.14 in 10.0 mi SE 5.8 mph - N/A   Overcast
6:18 PM 62.6 °F - 53.6 °F 72% 30.12 in 10.0 mi SE 5.8 mph - N/A Rain Light Rain
6:58 PM 59.0 °F - 57.2 °F 94% 30.13 in 10.0 mi ESE 3.5 mph - N/A Rain Light Rain
7:58 PM 59.0 °F - 57.2 °F 94% 30.12 in 7.0 mi Calm Calm - N/A Rain Light Rain
8:58 PM 59.0 °F - 57.2 °F 94% 30.11 in 10.0 mi ESE 8.1 mph - N/A   Overcast
9:58 PM 59.0 °F - 57.2 °F 94% 30.09 in 10.0 mi SE 8.1 mph - N/A   Overcast
10:58 PM 59.0 °F - 57.2 °F 94% 30.07 in 10.0 mi SE 5.8 mph - N/A   Overcast
11:23 PM 59.0 °F - 59.0 °F 100% 30.06 in 10.0 mi SE 4.6 mph - N/A Rain Light Rain
11:53 PM 59.0 °F - 59.0 °F 100% 30.05 in 4.0 mi SE 8.1 mph - N/A Rain Light Rain
11:58 PM 58.3 °F - 58.3 °F 100% 30.06 in 5.0 mi SE 6.9 mph - 0.00 in Rain Light Rain